When you browse on this site, cookies collect data to enhance your experience and personalize the content and advertising you see.
Visit our Privacy Policy to learn more. By continuing to use the site, you agree to this use of cookies and data.
  • en France
  • Liste des pays
  • À 7 jours
  • Température de l'eau
  • Carte météo
  • Widgets météo
  • user-avatar
    Se connecter

    Météo par heure à Berlin

    Ce jour, 13 Décembre, Vendredi

    Heure Température Précipitation Vent Pression Humidité
    00:00 0°C° 0 mm 3 m/s 743 mmHg 89%
    01:00 0°C° 0 mm 3 m/s 743 mmHg 89%
    02:00 0°C° 0 mm 3 m/s 742 mmHg 90%
    03:00 -1°C° 0 mm 4 m/s 741 mmHg 91%
    04:00 -2°C° 0 mm 4 m/s 740 mmHg 92%
    05:00 -2°C° 0 mm 4 m/s 739 mmHg 90%
    06:00 -2°C° 0 mm 5 m/s 738 mmHg 88%
    07:00 -2°C° 0 mm 5 m/s 737 mmHg 87%
    08:00 -1°C° 0 mm 5 m/s 737 mmHg 84%
    09:00 -1°C° 0 mm 5 m/s 736 mmHg 81%
    10:00 -1°C° 0 mm 5 m/s 735 mmHg 78%
    11:00 0°C° 0 mm 5 m/s 735 mmHg 76%
    12:00 +1°C° 0 mm 5 m/s 734 mmHg 74%
    13:00 +1°C° 0 mm 5 m/s 734 mmHg 71%
    14:00 +1°C° 0 mm 4 m/s 734 mmHg 74%
    15:00 +1°C° 0 mm 4 m/s 734 mmHg 76%
    16:00 +1°C° 0 mm 3 m/s 733 mmHg 79%
    17:00 +1°C° 0 mm 3 m/s 734 mmHg 84%
    18:00 0°C° 0 mm 4 m/s 734 mmHg 89%
    19:00 0°C° 0 mm 4 m/s 734 mmHg 93%
    20:00 0°C° 0 mm 4 m/s 734 mmHg 90%
    21:00 +1°C° 0 mm 3 m/s 734 mmHg 87%
    22:00 +2°C° 0 mm 3 m/s 735 mmHg 84%
    23:00 +2°C° 0 mm 3 m/s 735 mmHg 85%

    Demain, 14 Décembre, Samedi

    Heure Température Précipitation Vent Pression Humidité
    00:00 +3°C° 0 mm 4 m/s 735 mmHg 86%
    01:00 +3°C° 0 mm 4 m/s 735 mmHg 86%
    02:00 +3°C° 0 mm 4 m/s 736 mmHg 88%
    03:00 +3°C° 0 mm 4 m/s 736 mmHg 90%
    04:00 +3°C° 0 mm 4 m/s 736 mmHg 92%
    05:00 +3°C° 0.5 mm 4 m/s 736 mmHg 91%
    06:00 +3°C° 0.5 mm 4 m/s 737 mmHg 90%
    07:00 +4°C° 0.5 mm 4 m/s 738 mmHg 89%
    08:00 +3°C° 0 mm 5 m/s 738 mmHg 86%
    09:00 +3°C° 0 mm 5 m/s 738 mmHg 83%
    10:00 +2°C° 0 mm 6 m/s 738 mmHg 79%
    11:00 +2°C° 0.3 mm 6 m/s 738 mmHg 83%
    12:00 +2°C° 0.3 mm 6 m/s 737 mmHg 87%
    13:00 +2°C° 0.3 mm 6 m/s 737 mmHg 90%
    14:00 +3°C° 0.9 mm 7 m/s 738 mmHg 88%
    15:00 +4°C° 0.9 mm 8 m/s 738 mmHg 86%
    16:00 +3°C° 0.9 mm 9 m/s 739 mmHg 84%
    17:00 +4°C° 0 mm 8 m/s 740 mmHg 79%
    18:00 +3°C° 0 mm 7 m/s 742 mmHg 74%
    19:00 +3°C° 0 mm 6 m/s 743 mmHg 69%
    20:00 +3°C° 0 mm 6 m/s 744 mmHg 71%
    21:00 +2°C° 0 mm 5 m/s 744 mmHg 72%
    22:00 +2°C° 0 mm 5 m/s 745 mmHg 73%
    23:00 +2°C° 0 mm 5 m/s 746 mmHg 77%

    Après-demain, 15 Décembre, Dimanche

    Heure Température Précipitation Vent Pression Humidité
    00:00 +3°C° 0 mm 4 m/s 746 mmHg 81%
    01:00 +3°C° 0 mm 4 m/s 747 mmHg 85%
    02:00 +3°C° 0 mm 4 m/s 747 mmHg 87%
    03:00 +2°C° 0 mm 3 m/s 747 mmHg 88%
    04:00 +2°C° 0 mm 3 m/s 747 mmHg 89%
    05:00 +3°C° 0.2 mm 4 m/s 746 mmHg 89%
    06:00 +2°C° 0.2 mm 5 m/s 745 mmHg 88%
    07:00 +3°C° 0.2 mm 5 m/s 745 mmHg 88%
    08:00 +5°C° 1.4 mm 5 m/s 745 mmHg 88%
    09:00 +6°C° 1.4 mm 5 m/s 745 mmHg 89%
    10:00 +6°C° 1.4 mm 5 m/s 745 mmHg 89%
    11:00 +7°C° 0 mm 6 m/s 746 mmHg 78%
    12:00 +6°C° 0 mm 7 m/s 748 mmHg 67%
    13:00 +6°C° 0 mm 8 m/s 749 mmHg 56%
    14:00 +5°C° 0 mm 6 m/s 749 mmHg 60%
    15:00 +5°C° 0 mm 5 m/s 750 mmHg 63%
    16:00 +4°C° 0 mm 4 m/s 751 mmHg 67%
    17:00 +4°C° 0 mm 4 m/s 752 mmHg 68%
    18:00 +4°C° 0 mm 4 m/s 752 mmHg 69%
    19:00 +3°C° 0 mm 4 m/s 753 mmHg 71%
    20:00 +3°C° 0 mm 4 m/s 753 mmHg 72%
    21:00 +3°C° 0 mm 4 m/s 754 mmHg 73%
    22:00 +3°C° 0 mm 4 m/s 754 mmHg 75%
    23:00 +3°C° 0 mm 3 m/s 754 mmHg 78%

    16 Décembre, Lundi

    Heure Température Précipitation Vent Pression Humidité
    00:00 +3°C° 0 mm 3 m/s 754 mmHg 81%
    01:00 +3°C° 0 mm 3 m/s 754 mmHg 84%
    02:00 +3°C° 0 mm 3 m/s 754 mmHg 85%
    03:00 +4°C° 0 mm 3 m/s 754 mmHg 85%
    04:00 +4°C° 0 mm 3 m/s 754 mmHg 86%
    05:00 +4°C° 0 mm 3 m/s 754 mmHg 87%
    06:00 +4°C° 0 mm 3 m/s 754 mmHg 89%
    07:00 +4°C° 0 mm 3 m/s 754 mmHg 90%
    08:00 +5°C° 0 mm 4 m/s 754 mmHg 90%
    09:00 +6°C° 0 mm 4 m/s 754 mmHg 89%
    10:00 +6°C° 0 mm 4 m/s 754 mmHg 89%
    11:00 +7°C° 0.2 mm 3 m/s 754 mmHg 91%
    12:00 +7°C° 0.2 mm 3 m/s 754 mmHg 92%
    13:00 +7°C° 0.2 mm 2 m/s 754 mmHg 94%
    14:00 +7°C° 0.1 mm 2 m/s 754 mmHg 95%
    15:00 +7°C° 0.1 mm 2 m/s 754 mmHg 95%
    16:00 +7°C° 0.1 mm 2 m/s 754 mmHg 95%
    17:00 +7°C° 0.1 mm 2 m/s 754 mmHg 94%
    18:00 +7°C° 0.1 mm 2 m/s 754 mmHg 93%
    19:00 +7°C° 0.1 mm 3 m/s 754 mmHg 92%
    20:00 +7°C° 0 mm 3 m/s 754 mmHg 90%
    21:00 +7°C° 0 mm 3 m/s 754 mmHg 89%
    22:00 +5°C° 0 mm 3 m/s 753 mmHg 87%
    23:00 +5°C° 0 mm 3 m/s 753 mmHg 86%

    17 Décembre, Mardi

    Heure Température Précipitation Vent Pression Humidité
    00:00 +5°C° 0 mm 3 m/s 753 mmHg 84%
    01:00 +5°C° 0 mm 3 m/s 753 mmHg 83%
    02:00 +5°C° 0 mm 3 m/s 753 mmHg 83%
    03:00 +5°C° 0 mm 3 m/s 753 mmHg 82%
    04:00 +4°C° 0 mm 3 m/s 753 mmHg 82%
    05:00 +5°C° 0 mm 3 m/s 753 mmHg 81%
    06:00 +5°C° 0 mm 3 m/s 753 mmHg 80%
    07:00 +5°C° 0 mm 3 m/s 753 mmHg 79%
    08:00 +5°C° 0 mm 3 m/s 753 mmHg 78%
    09:00 +7°C° 0 mm 3 m/s 753 mmHg 76%
    10:00 +7°C° 0 mm 3 m/s 753 mmHg 74%
    11:00 +8°C° 0 mm 3 m/s 753 mmHg 71%
    12:00 +9°C° 0 mm 3 m/s 753 mmHg 68%
    13:00 +10°C° 0 mm 4 m/s 753 mmHg 66%
    14:00 +10°C° 0 mm 4 m/s 753 mmHg 68%
    15:00 +10°C° 0 mm 4 m/s 753 mmHg 70%
    16:00 +10°C° 0 mm 4 m/s 753 mmHg 72%
    17:00 +10°C° 0 mm 4 m/s 753 mmHg 73%
    18:00 +10°C° 0 mm 4 m/s 753 mmHg 73%
    19:00 +10°C° 0 mm 4 m/s 753 mmHg 74%
    20:00 +8°C° 0 mm 4 m/s 754 mmHg 75%
    21:00 +8°C° 0 mm 4 m/s 754 mmHg 76%
    22:00 +8°C° 0 mm 5 m/s 754 mmHg 77%
    23:00 +8°C° 0 mm 5 m/s 754 mmHg 77%

    18 Décembre, Mercredi

    Heure Température Précipitation Vent Pression Humidité
    00:00 +8°C° 0 mm 5 m/s 755 mmHg 76%
    01:00 +9°C° 0 mm 5 m/s 755 mmHg 75%
    02:00 +9°C° 0.2 mm 5 m/s 756 mmHg 79%
    03:00 +9°C° 0.2 mm 5 m/s 757 mmHg 82%
    04:00 +9°C° 0.2 mm 5 m/s 757 mmHg 85%
    05:00 +8°C° 0 mm 4 m/s 758 mmHg 85%
    06:00 +8°C° 0 mm 3 m/s 759 mmHg 85%
    07:00 +7°C° 0 mm 3 m/s 760 mmHg 86%
    08:00 +7°C° 0 mm 2 m/s 761 mmHg 85%
    09:00 +7°C° 0 mm 2 m/s 762 mmHg 84%
    10:00 +6°C° 0 mm 2 m/s 763 mmHg 84%
    11:00 +7°C° 0 mm 1 m/s 763 mmHg 80%
    12:00 +8°C° 0 mm 1 m/s 764 mmHg 76%
    13:00 +7°C° 0 mm 0 m/s 764 mmHg 72%
    14:00 +6°C° 0 mm 0 m/s 764 mmHg 75%
    15:00 +7°C° 0 mm 1 m/s 764 mmHg 78%
    16:00 +6°C° 0 mm 1 m/s 765 mmHg 81%
    17:00 +6°C° 0 mm 1 m/s 765 mmHg 83%
    18:00 +5°C° 0 mm 1 m/s 765 mmHg 84%
    19:00 +5°C° 0 mm 1 m/s 766 mmHg 85%
    20:00 +5°C° 0 mm 1 m/s 766 mmHg 87%
    21:00 +3°C° 0 mm 2 m/s 766 mmHg 88%
    22:00 +3°C° 0 mm 2 m/s 766 mmHg 90%
    23:00 +3°C° 0 mm 2 m/s 766 mmHg 91%
    Voir plus